owner,sensor,date,latitude,longitude,vertical_datum,wind_speed,wind_to_direction,wind_speed_of_gust,qcFlag 
NOS,ioos:station:wmo:bzst2:1,2019-01-01T00:00:00Z,26.0670,-97.1550,15.0,2.2,341.0,2.8,'11111222,11111222,11111222' 
NOS,ioos:station:wmo:bzst2:1,2019-01-01T00:06:00Z,26.0670,-97.1550,15.0,4.0,319.0,4.3,'11111222,11111222,11111222' 
NOS,ioos:station:wmo:bzst2:1,2019-01-01T00:12:00Z,26.0670,-97.1550,15.0,3.4,328.0,4.9,'11111222,11111222,11111222' 
NOS,ioos:station:wmo:bzst2:1,2019-01-01T00:18:00Z,26.0670,-97.1550,15.0,2.7,348.0,3.5,'11111222,11111222,11111222' 
NOS,ioos:station:wmo:bzst2:1,2019-01-01T00:24:00Z,26.0670,-97.1550,15.0,2.7,351.0,3.1,'11111222,11111222,11111222' 
NOS,ioos:station:wmo:bzst2:1,2019-01-01T00:30:00Z,26.0670,-97.1550,15.0,2.6,348.0,2.9,'11111222,11111222,11111222' 
NOS,ioos:station:wmo:bzst2:1,2019-01-01T00:36:00Z,26.0670,-97.1550,15.0,2.8,344.0,3.3,'11111222,11111222,11111222' 
NOS,ioos:station:wmo:bzst2:1,2019-01-01T00:42:00Z,26.0670,-97.1550,15.0,1.8,353.0,2.6,'11111222,11111222,11111222' 
NOS,ioos:station:wmo:bzst2:1,2019-01-01T00:48:00Z,26.0670,-97.1550,15.0,2.0,18.0,2.5,'11111222,11111222,11111222' 
NOS,ioos:station:wmo:bzst2:1,2019-01-01T00:54:00Z,26.0670,-97.1550,15.0,2.1,9.0,2.4,'11111222,11111222,11111222' 
NOS,ioos:station:wmo:bzst2:1,2019-01-01T01:00:00Z,26.0670,-97.1550,15.0,1.6,17.0,2.6,'11111222,11111222,11111222' 
NOS,ioos:station:wmo:bzst2:1,2019-01-01T01:06:00Z,26.0670,-97.1550,15.0,1.1,309.0,1.7,'11111222,11111222,11111222' 
NOS,ioos:station:wmo:bzst2:1,2019-01-01T01:12:00Z,26.0670,-97.1550,15.0,1.9,299.0,2.7,'11111222,11111222,11111222' 
NOS,ioos:station:wmo:bzst2:1,2019-01-01T01:18:00Z,26.0670,-97.1550,15.0,0.4,346.0,1.8,'11111222,11111222,11111222' 
NOS,ioos:station:wmo:bzst2:1,2019-01-01T01:24:00Z,26.0670,-97.1550,15.0,0.6,301.0,0.8,'11111222,11111222,11111222' 
NOS,ioos:station:wmo:bzst2:1,2019-01-01T01:30:00Z,26.0670,-97.1550,15.0,2.1,312.0,2.8,'11111222,11111222,11111222' 
NOS,ioos:station:wmo:bzst2:1,2019-01-01T01:36:00Z,26.0670,-97.1550,15.0,3.4,320.0,3.7,'11111222,11111222,11111222' 
NOS,ioos:station:wmo:bzst2:1,2019-01-01T01:42:00Z,26.0670,-97.1550,15.0,2.6,329.0,3.6,'11111222,11111222,11111222' 
NOS,ioos:station:wmo:bzst2:1,2019-01-01T01:48:00Z,26.0670,-97.1550,15.0,2.0,342.0,2.6,'11111222,11111222,11111222' 
NOS,ioos:station:wmo:bzst2:1,2019-01-01T01:54:00Z,26.0670,-97.1550,15.0,2.5,327.0,2.7,'11111222,11111222,11111222' 
NOS,ioos:station:wmo:bzst2:1,2019-01-01T02:00:00Z,26.0670,-97.1550,15.0,3.1,332.0,3.6,'11111222,11111222,11111222' 
NOS,ioos:station:wmo:bzst2:1,2019-01-01T02:06:00Z,26.0670,-97.1550,15.0,2.0,344.0,3.0,'11111222,11111222,11111222' 
NOS,ioos:station:wmo:bzst2:1,2019-01-01T02:12:00Z,26.0670,-97.1550,15.0,1.9,349.0,2.1,'11111222,11111222,11111222' 
NOS,ioos:station:wmo:bzst2:1,2019-01-01T02:18:00Z,26.0670,-97.1550,15.0,3.1,325.0,3.3,'11111222,11111222,11111222' 
NOS,ioos:station:wmo:bzst2:1,2019-01-01T02:24:00Z,26.0670,-97.1550,15.0,3.7,327.0,4.1,'11111222,11111222,11111222' 
NOS,ioos:station:wmo:bzst2:1,2019-01-01T02:30:00Z,26.0670,-97.1550,15.0,3.4,330.0,4.1,'11111222,11111222,11111222' 
NOS,ioos:station:wmo:bzst2:1,2019-01-01T02:36:00Z,26.0670,-97.1550,15.0,3.6,325.0,4.2,'11111222,11111222,11111222' 
NOS,ioos:station:wmo:bzst2:1,2019-01-01T02:42:00Z,26.0670,-97.1550,15.0,3.2,327.0,3.7,'11111222,11111222,11111222' 
NOS,ioos:station:wmo:bzst2:1,2019-01-01T02:48:00Z,26.0670,-97.1550,15.0,3.2,331.0,3.6,'11111222,11111222,11111222' 
NOS,ioos:station:wmo:bzst2:1,2019-01-01T02:54:00Z,26.0670,-97.1550,15.0,2.4,342.0,3.6,'11111222,11111222,11111222' 
NOS,ioos:station:wmo:bzst2:1,2019-01-01T03:00:00Z,26.0670,-97.1550,15.0,3.4,319.0,3.8,'11111222,11111222,11111222' 
NOS,ioos:station:wmo:bzst2:1,2019-01-01T03:06:00Z,26.0670,-97.1550,15.0,4.1,314.0,4.5,'11111222,11111222,11111222' 
NOS,ioos:station:wmo:bzst2:1,2019-01-01T03:12:00Z,26.0670,-97.1550,15.0,2.9,324.0,4.2,'11111222,11111222,11111222' 
NOS,ioos:station:wmo:bzst2:1,2019-01-01T03:18:00Z,26.0670,-97.1550,15.0,2.9,330.0,3.1,'11111222,11111222,11111222' 
NOS,ioos:station:wmo:bzst2:1,2019-01-01T03:24:00Z,26.0670,-97.1550,15.0,2.9,338.0,3.2,'11111222,11111222,11111222' 
NOS,ioos:station:wmo:bzst2:1,2019-01-01T03:30:00Z,26.0670,-97.1550,15.0,2.6,338.0,3.1,'11111222,11111222,11111222' 
NOS,ioos:station:wmo:bzst2:1,2019-01-01T03:36:00Z,26.0670,-97.1550,15.0,2.1,2.0,2.7,'11111222,11111222,11111222' 
NOS,ioos:station:wmo:bzst2:1,2019-01-01T03:42:00Z,26.0670,-97.1550,15.0,2.0,355.0,2.2,'11111222,11111222,11111222' 
NOS,ioos:station:wmo:bzst2:1,2019-01-01T03:48:00Z,26.0670,-97.1550,15.0,2.7,331.0,2.8,'11111222,11111222,11111222' 
NOS,ioos:station:wmo:bzst2:1,2019-01-01T03:54:00Z,26.0670,-97.1550,15.0,3.4,321.0,3.9,'11111222,11111222,11111222' 
NOS,ioos:station:wmo:bzst2:1,2019-01-01T04:00:00Z,26.0670,-97.1550,15.0,3.9,323.0,4.8,'11111222,11111222,11111222' 
NOS,ioos:station:wmo:bzst2:1,2019-01-01T04:06:00Z,26.0670,-97.1550,15.0,3.8,317.0,5.0,'11111222,11111222,11111222' 
NOS,ioos:station:wmo:bzst2:1,2019-01-01T04:12:00Z,26.0670,-97.1550,15.0,3.9,312.0,4.5,'11111222,11111222,11111222' 
NOS,ioos:station:wmo:bzst2:1,2019-01-01T04:18:00Z,26.0670,-97.1550,15.0,3.9,318.0,4.8,'11111222,11111222,11111222' 
NOS,ioos:station:wmo:bzst2:1,2019-01-01T04:24:00Z,26.0670,-97.1550,15.0,4.3,322.0,5.0,'11111222,11111222,11111222' 
NOS,ioos:station:wmo:bzst2:1,2019-01-01T04:30:00Z,26.0670,-97.1550,15.0,5.1,319.0,6.2,'11111222,11111222,11111222' 
NOS,ioos:station:wmo:bzst2:1,2019-01-01T04:36:00Z,26.0670,-97.1550,15.0,4.9,317.0,6.2,'11111222,11111222,11111222' 
NOS,ioos:station:wmo:bzst2:1,2019-01-01T04:42:00Z,26.0670,-97.1550,15.0,3.7,317.0,5.1,'11111222,11111222,11111222' 
NOS,ioos:station:wmo:bzst2:1,2019-01-01T04:48:00Z,26.0670,-97.1550,15.0,3.7,325.0,4.6,'11111222,11111222,11111222' 
NOS,ioos:station:wmo:bzst2:1,2019-01-01T04:54:00Z,26.0670,-97.1550,15.0,4.0,328.0,4.6,'11111222,11111222,11111222' 
NOS,ioos:station:wmo:bzst2:1,2019-01-01T05:00:00Z,26.0670,-97.1550,15.0,3.5,337.0,4.2,'11111222,11111222,11111222' 
NOS,ioos:station:wmo:bzst2:1,2019-01-01T05:06:00Z,26.0670,-97.1550,15.0,2.8,335.0,3.6,'11111222,11111222,11111222' 
NOS,ioos:station:wmo:bzst2:1,2019-01-01T05:12:00Z,26.0670,-97.1550,15.0,3.5,329.0,4.2,'11111222,11111222,11111222' 
NOS,ioos:station:wmo:bzst2:1,2019-01-01T05:18:00Z,26.0670,-97.1550,15.0,4.0,331.0,4.6,'11111222,11111222,11111222' 
NOS,ioos:station:wmo:bzst2:1,2019-01-01T05:24:00Z,26.0670,-97.1550,15.0,3.9,332.0,5.1,'11111222,11111222,11111222' 
NOS,ioos:station:wmo:bzst2:1,2019-01-01T05:30:00Z,26.0670,-97.1550,15.0,2.9,343.0,3.8,'11111222,11111222,11111222' 
NOS,ioos:station:wmo:bzst2:1,2019-01-01T05:36:00Z,26.0670,-97.1550,15.0,2.5,345.0,3.3,'11111222,11111222,11111222' 
NOS,ioos:station:wmo:bzst2:1,2019-01-01T05:42:00Z,26.0670,-97.1550,15.0,2.2,326.0,2.7,'11111222,11111222,11111222' 
NOS,ioos:station:wmo:bzst2:1,2019-01-01T05:48:00Z,26.0670,-97.1550,15.0,3.0,331.0,3.9,'11111222,11111222,11111222' 
NOS,ioos:station:wmo:bzst2:1,2019-01-01T05:54:00Z,26.0670,-97.1550,15.0,3.2,336.0,3.9,'11111222,11111222,11111222' 
NOS,ioos:station:wmo:bzst2:1,2019-01-01T06:00:00Z,26.0670,-97.1550,15.0,3.5,340.0,4.3,'11111222,11111222,11111222' 
NOS,ioos:station:wmo:bzst2:1,2019-01-01T06:06:00Z,26.0670,-97.1550,15.0,3.7,333.0,4.2,'11111222,11111222,11111222' 
NOS,ioos:station:wmo:bzst2:1,2019-01-01T06:12:00Z,26.0670,-97.1550,15.0,2.6,322.0,3.8,'11111222,11111222,11111222' 
NOS,ioos:station:wmo:bzst2:1,2019-01-01T06:18:00Z,26.0670,-97.1550,15.0,3.1,336.0,3.7,'11111222,11111222,11111222' 
NOS,ioos:station:wmo:bzst2:1,2019-01-01T06:24:00Z,26.0670,-97.1550,15.0,3.3,329.0,4.2,'11111222,11111222,11111222' 
NOS,ioos:station:wmo:bzst2:1,2019-01-01T06:30:00Z,26.0670,-97.1550,15.0,3.8,325.0,4.5,'11111222,11111222,11111222' 
NOS,ioos:station:wmo:bzst2:1,2019-01-01T06:36:00Z,26.0670,-97.1550,15.0,4.2,336.0,5.1,'11111222,11111222,11111222' 
NOS,ioos:station:wmo:bzst2:1,2019-01-01T06:42:00Z,26.0670,-97.1550,15.0,4.1,326.0,5.1,'11111222,11111222,11111222' 
NOS,ioos:station:wmo:bzst2:1,2019-01-01T06:48:00Z,26.0670,-97.1550,15.0,4.3,335.0,5.3,'11111222,11111222,11111222' 
NOS,ioos:station:wmo:bzst2:1,2019-01-01T06:54:00Z,26.0670,-97.1550,15.0,3.5,342.0,5.9,'11111222,11111222,11111222' 
NOS,ioos:station:wmo:bzst2:1,2019-01-01T07:00:00Z,26.0670,-97.1550,15.0,3.5,331.0,4.0,'11111222,11111222,11111222' 
NOS,ioos:station:wmo:bzst2:1,2019-01-01T07:06:00Z,26.0670,-97.1550,15.0,3.8,329.0,4.6,'11111222,11111222,11111222' 
NOS,ioos:station:wmo:bzst2:1,2019-01-01T07:12:00Z,26.0670,-97.1550,15.0,4.4,337.0,5.3,'11111222,11111222,11111222' 
NOS,ioos:station:wmo:bzst2:1,2019-01-01T07:18:00Z,26.0670,-97.1550,15.0,4.6,340.0,5.9,'11111222,11111222,11111222' 
NOS,ioos:station:wmo:bzst2:1,2019-01-01T07:24:00Z,26.0670,-97.1550,15.0,4.6,339.0,5.7,'11111222,11111222,11111222' 
NOS,ioos:station:wmo:bzst2:1,2019-01-01T07:30:00Z,26.0670,-97.1550,15.0,3.6,341.0,4.8,'11111222,11111222,11111222' 
NOS,ioos:station:wmo:bzst2:1,2019-01-01T07:36:00Z,26.0670,-97.1550,15.0,3.6,352.0,4.2,'11111222,11111222,11111222' 
NOS,ioos:station:wmo:bzst2:1,2019-01-01T07:42:00Z,26.0670,-97.1550,15.0,4.0,339.0,4.8,'11111222,11111222,11111222' 
NOS,ioos:station:wmo:bzst2:1,2019-01-01T07:48:00Z,26.0670,-97.1550,15.0,3.5,337.0,4.7,'11111222,11111222,11111222' 
NOS,ioos:station:wmo:bzst2:1,2019-01-01T07:54:00Z,26.0670,-97.1550,15.0,2.5,344.0,4.0,'11111222,11111222,11111222' 
NOS,ioos:station:wmo:bzst2:1,2019-01-01T08:00:00Z,26.0670,-97.1550,15.0,3.5,326.0,3.9,'11111222,11111222,11111222' 
NOS,ioos:station:wmo:bzst2:1,2019-01-01T08:06:00Z,26.0670,-97.1550,15.0,3.2,340.0,3.8,'11111222,11111222,11111222' 
NOS,ioos:station:wmo:bzst2:1,2019-01-01T08:12:00Z,26.0670,-97.1550,15.0,2.7,359.0,3.1,'11111222,11111222,11111222' 
NOS,ioos:station:wmo:bzst2:1,2019-01-01T08:18:00Z,26.0670,-97.1550,15.0,2.8,327.0,3.2,'11111222,11111222,11111222' 
NOS,ioos:station:wmo:bzst2:1,2019-01-01T08:24:00Z,26.0670,-97.1550,15.0,2.9,331.0,3.4,'11111222,11111222,11111222' 
NOS,ioos:station:wmo:bzst2:1,2019-01-01T08:30:00Z,26.0670,-97.1550,15.0,2.8,356.0,3.3,'11111222,11111222,11111222' 
NOS,ioos:station:wmo:bzst2:1,2019-01-01T08:36:00Z,26.0670,-97.1550,15.0,1.7,5.0,2.7,'11111222,11111222,11111222' 
NOS,ioos:station:wmo:bzst2:1,2019-01-01T08:42:00Z,26.0670,-97.1550,15.0,2.6,337.0,3.1,'11111222,11111222,11111222' 
NOS,ioos:station:wmo:bzst2:1,2019-01-01T08:48:00Z,26.0670,-97.1550,15.0,3.4,325.0,3.8,'11111222,11111222,11111222' 
NOS,ioos:station:wmo:bzst2:1,2019-01-01T08:54:00Z,26.0670,-97.1550,15.0,4.1,330.0,4.8,'11111222,11111222,11111222' 
NOS,ioos:station:wmo:bzst2:1,2019-01-01T09:00:00Z,26.0670,-97.1550,15.0,3.9,346.0,4.9,'11111222,11111222,11111222' 
NOS,ioos:station:wmo:bzst2:1,2019-01-01T09:06:00Z,26.0670,-97.1550,15.0,3.2,350.0,4.0,'11111222,11111222,11111222' 
NOS,ioos:station:wmo:bzst2:1,2019-01-01T09:12:00Z,26.0670,-97.1550,15.0,3.5,323.0,4.2,'11111222,11111222,11111222' 
NOS,ioos:station:wmo:bzst2:1,2019-01-01T09:18:00Z,26.0670,-97.1550,15.0,4.0,330.0,4.5,'11111222,11111222,11111222' 
NOS,ioos:station:wmo:bzst2:1,2019-01-01T09:24:00Z,26.0670,-97.1550,15.0,3.3,330.0,4.2,'11111222,11111222,11111222' 
NOS,ioos:station:wmo:bzst2:1,2019-01-01T09:30:00Z,26.0670,-97.1550,15.0,3.2,342.0,3.7,'11111222,11111222,11111222' 
NOS,ioos:station:wmo:bzst2:1,2019-01-01T09:36:00Z,26.0670,-97.1550,15.0,3.0,4.0,3.4,'11111222,11111222,11111222' 
NOS,ioos:station:wmo:bzst2:1,2019-01-01T09:42:00Z,26.0670,-97.1550,15.0,3.4,360.0,4.0,'11111222,11144222,11111222' 
NOS,ioos:station:wmo:bzst2:1,2019-01-01T09:48:00Z,26.0670,-97.1550,15.0,2.7,340.0,3.6,'11111222,11111222,11111222' 
NOS,ioos:station:wmo:bzst2:1,2019-01-01T09:54:00Z,26.0670,-97.1550,15.0,2.5,358.0,2.9,'11111222,11111222,11111222' 
NOS,ioos:station:wmo:bzst2:1,2019-01-01T10:00:00Z,26.0670,-97.1550,15.0,2.5,348.0,3.1,'11111222,11111222,11111222' 
NOS,ioos:station:wmo:bzst2:1,2019-01-01T10:06:00Z,26.0670,-97.1550,15.0,1.8,344.0,2.4,'11111222,11111222,11111222' 
NOS,ioos:station:wmo:bzst2:1,2019-01-01T10:12:00Z,26.0670,-97.1550,15.0,3.3,341.0,3.5,'11111222,11111222,11111222' 
NOS,ioos:station:wmo:bzst2:1,2019-01-01T10:18:00Z,26.0670,-97.1550,15.0,3.1,6.0,3.7,'11111222,11111222,11111222' 
NOS,ioos:station:wmo:bzst2:1,2019-01-01T10:24:00Z,26.0670,-97.1550,15.0,3.2,14.0,3.6,'11111222,11111222,11111222' 
NOS,ioos:station:wmo:bzst2:1,2019-01-01T10:30:00Z,26.0670,-97.1550,15.0,3.4,16.0,4.1,'11111222,11111222,11111222' 
NOS,ioos:station:wmo:bzst2:1,2019-01-01T10:36:00Z,26.0670,-97.1550,15.0,3.3,15.0,3.5,'11111222,11111222,11111222' 
NOS,ioos:station:wmo:bzst2:1,2019-01-01T10:42:00Z,26.0670,-97.1550,15.0,3.7,35.0,3.9,'11111222,11111222,11111222' 
NOS,ioos:station:wmo:bzst2:1,2019-01-01T10:48:00Z,26.0670,-97.1550,15.0,4.2,54.0,4.5,'11111222,11111222,11111222' 
NOS,ioos:station:wmo:bzst2:1,2019-01-01T10:54:00Z,26.0670,-97.1550,15.0,4.6,55.0,4.9,'11111222,11111222,11111222' 
NOS,ioos:station:wmo:bzst2:1,2019-01-01T11:00:00Z,26.0670,-97.1550,15.0,4.4,57.0,4.8,'11111222,11111222,11111222' 
NOS,ioos:station:wmo:bzst2:1,2019-01-01T11:06:00Z,26.0670,-97.1550,15.0,4.6,65.0,4.9,'11111222,11111222,11111222' 
NOS,ioos:station:wmo:bzst2:1,2019-01-01T11:12:00Z,26.0670,-97.1550,15.0,4.3,69.0,5.1,'11111222,11111222,11111222' 
NOS,ioos:station:wmo:bzst2:1,2019-01-01T11:18:00Z,26.0670,-97.1550,15.0,4.1,56.0,4.4,'11111222,11111222,11111222' 
NOS,ioos:station:wmo:bzst2:1,2019-01-01T11:24:00Z,26.0670,-97.1550,15.0,4.5,53.0,4.9,'11111222,11111222,11111222' 
NOS,ioos:station:wmo:bzst2:1,2019-01-01T11:30:00Z,26.0670,-97.1550,15.0,4.5,46.0,5.1,'11111222,11111222,11111222' 
NOS,ioos:station:wmo:bzst2:1,2019-01-01T11:36:00Z,26.0670,-97.1550,15.0,3.5,49.0,4.7,'11111222,11111222,11111222' 
NOS,ioos:station:wmo:bzst2:1,2019-01-01T11:42:00Z,26.0670,-97.1550,15.0,3.3,47.0,3.6,'11111222,11111222,11111222' 
NOS,ioos:station:wmo:bzst2:1,2019-01-01T11:48:00Z,26.0670,-97.1550,15.0,3.4,27.0,3.7,'11111222,11111222,11111222' 
NOS,ioos:station:wmo:bzst2:1,2019-01-01T11:54:00Z,26.0670,-97.1550,15.0,3.2,30.0,3.6,'11111222,11111222,11111222' 
NOS,ioos:station:wmo:bzst2:1,2019-01-01T12:00:00Z,26.0670,-97.1550,15.0,3.2,39.0,3.5,'11111222,11111222,11111222' 
NOS,ioos:station:wmo:bzst2:1,2019-01-01T12:06:00Z,26.0670,-97.1550,15.0,3.2,43.0,3.4,'11111222,11111222,11111222' 
NOS,ioos:station:wmo:bzst2:1,2019-01-01T12:12:00Z,26.0670,-97.1550,15.0,3.3,42.0,3.6,'11111222,11111222,11111222' 
NOS,ioos:station:wmo:bzst2:1,2019-01-01T12:18:00Z,26.0670,-97.1550,15.0,3.3,45.0,3.6,'11111222,11111222,11111222' 
NOS,ioos:station:wmo:bzst2:1,2019-01-01T12:24:00Z,26.0670,-97.1550,15.0,3.4,46.0,3.7,'11111222,11111222,11111222' 
NOS,ioos:station:wmo:bzst2:1,2019-01-01T12:30:00Z,26.0670,-97.1550,15.0,3.5,32.0,3.7,'11111222,11111222,11111222' 
NOS,ioos:station:wmo:bzst2:1,2019-01-01T12:36:00Z,26.0670,-97.1550,15.0,3.8,32.0,4.1,'11111222,11111222,11111222' 
NOS,ioos:station:wmo:bzst2:1,2019-01-01T12:42:00Z,26.0670,-97.1550,15.0,3.6,31.0,4.0,'11111222,11111222,11111222' 
NOS,ioos:station:wmo:bzst2:1,2019-01-01T12:48:00Z,26.0670,-97.1550,15.0,3.2,37.0,3.6,'11111222,11111222,11111222' 
NOS,ioos:station:wmo:bzst2:1,2019-01-01T12:54:00Z,26.0670,-97.1550,15.0,3.1,40.0,3.3,'11111222,11111222,11111222' 
NOS,ioos:station:wmo:bzst2:1,2019-01-01T13:00:00Z,26.0670,-97.1550,15.0,3.3,50.0,3.4,'11111222,11111222,11111222' 
NOS,ioos:station:wmo:bzst2:1,2019-01-01T13:06:00Z,26.0670,-97.1550,15.0,3.5,81.0,3.7,'11111222,11111222,11111222' 
NOS,ioos:station:wmo:bzst2:1,2019-01-01T13:12:00Z,26.0670,-97.1550,15.0,4.1,78.0,4.4,'11111222,11111222,11111222' 
NOS,ioos:station:wmo:bzst2:1,2019-01-01T13:18:00Z,26.0670,-97.1550,15.0,4.4,72.0,4.6,'11111222,11111222,11111222' 
NOS,ioos:station:wmo:bzst2:1,2019-01-01T13:24:00Z,26.0670,-97.1550,15.0,4.3,69.0,4.5,'11111222,11111222,11111222' 
NOS,ioos:station:wmo:bzst2:1,2019-01-01T13:30:00Z,26.0670,-97.1550,15.0,4.6,60.0,5.0,'11111222,11111222,11111222' 
NOS,ioos:station:wmo:bzst2:1,2019-01-01T13:36:00Z,26.0670,-97.1550,15.0,5.1,55.0,5.4,'11111222,11111222,11111222' 
NOS,ioos:station:wmo:bzst2:1,2019-01-01T13:42:00Z,26.0670,-97.1550,15.0,5.0,68.0,5.5,'11111222,11111222,11111222' 
NOS,ioos:station:wmo:bzst2:1,2019-01-01T13:48:00Z,26.0670,-97.1550,15.0,4.8,65.0,5.3,'11111222,11111222,11111222' 
NOS,ioos:station:wmo:bzst2:1,2019-01-01T13:54:00Z,26.0670,-97.1550,15.0,4.9,55.0,5.4,'11111222,11111222,11111222' 
NOS,ioos:station:wmo:bzst2:1,2019-01-01T14:00:00Z,26.0670,-97.1550,15.0,4.5,48.0,5.1,'11111222,11111222,11111222' 
NOS,ioos:station:wmo:bzst2:1,2019-01-01T14:06:00Z,26.0670,-97.1550,15.0,4.1,40.0,4.6,'11111222,11111222,11111222' 
NOS,ioos:station:wmo:bzst2:1,2019-01-01T14:12:00Z,26.0670,-97.1550,15.0,3.6,39.0,4.1,'11111222,11111222,11111222' 
NOS,ioos:station:wmo:bzst2:1,2019-01-01T14:18:00Z,26.0670,-97.1550,15.0,2.0,41.0,3.5,'11111222,11111222,11111222' 
NOS,ioos:station:wmo:bzst2:1,2019-01-01T14:24:00Z,26.0670,-97.1550,15.0,1.1,18.0,1.8,'11111222,11111222,11111222' 
NOS,ioos:station:wmo:bzst2:1,2019-01-01T14:30:00Z,26.0670,-97.1550,15.0,2.7,12.0,3.0,'11111222,11111222,11111222' 
NOS,ioos:station:wmo:bzst2:1,2019-01-01T14:36:00Z,26.0670,-97.1550,15.0,3.8,11.0,4.1,'11111222,11111222,11111222' 
NOS,ioos:station:wmo:bzst2:1,2019-01-01T14:42:00Z,26.0670,-97.1550,15.0,4.3,32.0,4.6,'11111222,11111222,11111222' 
NOS,ioos:station:wmo:bzst2:1,2019-01-01T14:48:00Z,26.0670,-97.1550,15.0,4.7,24.0,4.8,'11111222,11111222,11111222' 
NOS,ioos:station:wmo:bzst2:1,2019-01-01T14:54:00Z,26.0670,-97.1550,15.0,5.1,28.0,5.3,'11111222,11111222,11111222' 
NOS,ioos:station:wmo:bzst2:1,2019-01-01T15:00:00Z,26.0670,-97.1550,15.0,4.8,34.0,5.1,'11111222,11111222,11111222' 
NOS,ioos:station:wmo:bzst2:1,2019-01-01T15:06:00Z,26.0670,-97.1550,15.0,4.8,39.0,5.0,'11111222,11111222,11111222' 
NOS,ioos:station:wmo:bzst2:1,2019-01-01T15:12:00Z,26.0670,-97.1550,15.0,4.5,34.0,4.9,'11111222,11111222,11111222' 
NOS,ioos:station:wmo:bzst2:1,2019-01-01T15:18:00Z,26.0670,-97.1550,15.0,4.6,29.0,5.0,'11111222,11111222,11111222' 
NOS,ioos:station:wmo:bzst2:1,2019-01-01T15:24:00Z,26.0670,-97.1550,15.0,4.4,32.0,4.8,'11111222,11111222,11111222' 
NOS,ioos:station:wmo:bzst2:1,2019-01-01T15:30:00Z,26.0670,-97.1550,15.0,3.9,36.0,4.6,'11111222,11111222,11111222' 
NOS,ioos:station:wmo:bzst2:1,2019-01-01T15:36:00Z,26.0670,-97.1550,15.0,3.4,25.0,3.9,'11111222,11111222,11111222' 
NOS,ioos:station:wmo:bzst2:1,2019-01-01T15:42:00Z,26.0670,-97.1550,15.0,3.5,31.0,3.8,'11111222,11111222,11111222' 
NOS,ioos:station:wmo:bzst2:1,2019-01-01T15:48:00Z,26.0670,-97.1550,15.0,2.8,28.0,3.6,'11111222,11111222,11111222' 
NOS,ioos:station:wmo:bzst2:1,2019-01-01T15:54:00Z,26.0670,-97.1550,15.0,2.2,11.0,2.8,'11111222,11111222,11111222' 
NOS,ioos:station:wmo:bzst2:1,2019-01-01T16:00:00Z,26.0670,-97.1550,15.0,1.6,344.0,2.2,'11111222,11111222,11111222' 
NOS,ioos:station:wmo:bzst2:1,2019-01-01T16:06:00Z,26.0670,-97.1550,15.0,2.5,5.0,2.7,'11111222,11111222,11111222' 
NOS,ioos:station:wmo:bzst2:1,2019-01-01T16:12:00Z,26.0670,-97.1550,15.0,3.0,22.0,3.4,'11111222,11111222,11111222' 
NOS,ioos:station:wmo:bzst2:1,2019-01-01T16:18:00Z,26.0670,-97.1550,15.0,2.7,15.0,3.2,'11111222,11111222,11111222' 
NOS,ioos:station:wmo:bzst2:1,2019-01-01T16:24:00Z,26.0670,-97.1550,15.0,2.6,12.0,2.8,'11111222,11111222,11111222' 
NOS,ioos:station:wmo:bzst2:1,2019-01-01T16:30:00Z,26.0670,-97.1550,15.0,2.6,15.0,2.8,'11111222,11111222,11111222' 
NOS,ioos:station:wmo:bzst2:1,2019-01-01T16:36:00Z,26.0670,-97.1550,15.0,3.3,19.0,3.6,'11111222,11111222,11111222' 
NOS,ioos:station:wmo:bzst2:1,2019-01-01T16:42:00Z,26.0670,-97.1550,15.0,3.6,16.0,3.8,'11111222,11111222,11111222' 
NOS,ioos:station:wmo:bzst2:1,2019-01-01T16:48:00Z,26.0670,-97.1550,15.0,4.0,15.0,4.1,'11111222,11111222,11111222' 
NOS,ioos:station:wmo:bzst2:1,2019-01-01T16:54:00Z,26.0670,-97.1550,15.0,4.0,16.0,4.1,'11111222,11111222,11111222' 
NOS,ioos:station:wmo:bzst2:1,2019-01-01T17:00:00Z,26.0670,-97.1550,15.0,4.4,18.0,4.5,'11111222,11111222,11111222' 
NOS,ioos:station:wmo:bzst2:1,2019-01-01T17:06:00Z,26.0670,-97.1550,15.0,4.6,17.0,4.7,'11111222,11111222,11111222' 
NOS,ioos:station:wmo:bzst2:1,2019-01-01T17:12:00Z,26.0670,-97.1550,15.0,4.1,20.0,4.5,'11111222,11111222,11111222' 
NOS,ioos:station:wmo:bzst2:1,2019-01-01T17:18:00Z,26.0670,-97.1550,15.0,4.5,15.0,4.6,'11111222,11111222,11111222' 
NOS,ioos:station:wmo:bzst2:1,2019-01-01T17:24:00Z,26.0670,-97.1550,15.0,4.9,23.0,5.0,'11111222,11111222,11111222' 
NOS,ioos:station:wmo:bzst2:1,2019-01-01T17:30:00Z,26.0670,-97.1550,15.0,4.4,27.0,4.9,'11111222,11111222,11111222' 
NOS,ioos:station:wmo:bzst2:1,2019-01-01T17:36:00Z,26.0670,-97.1550,15.0,4.1,28.0,4.4,'11111222,11111222,11111222' 
NOS,ioos:station:wmo:bzst2:1,2019-01-01T17:42:00Z,26.0670,-97.1550,15.0,4.2,24.0,4.4,'11111222,11111222,11111222' 
NOS,ioos:station:wmo:bzst2:1,2019-01-01T17:48:00Z,26.0670,-97.1550,15.0,4.0,12.0,4.2,'11111222,11111222,11111222' 
NOS,ioos:station:wmo:bzst2:1,2019-01-01T17:54:00Z,26.0670,-97.1550,15.0,4.6,8.0,4.8,'11111222,11111222,11111222' 
NOS,ioos:station:wmo:bzst2:1,2019-01-01T18:00:00Z,26.0670,-97.1550,15.0,5.2,10.0,5.5,'11111222,11111222,11111222' 
NOS,ioos:station:wmo:bzst2:1,2019-01-01T18:06:00Z,26.0670,-97.1550,15.0,5.2,9.0,5.7,'11111222,11111222,11111222' 
NOS,ioos:station:wmo:bzst2:1,2019-01-01T18:12:00Z,26.0670,-97.1550,15.0,5.1,13.0,5.4,'11111222,11111222,11111222' 
NOS,ioos:station:wmo:bzst2:1,2019-01-01T18:18:00Z,26.0670,-97.1550,15.0,4.9,19.0,5.2,'11111222,11111222,11111222' 
NOS,ioos:station:wmo:bzst2:1,2019-01-01T18:24:00Z,26.0670,-97.1550,15.0,4.9,23.0,5.2,'11111222,11111222,11111222' 
NOS,ioos:station:wmo:bzst2:1,2019-01-01T18:30:00Z,26.0670,-97.1550,15.0,4.7,32.0,5.1,'11111222,11111222,11111222' 
NOS,ioos:station:wmo:bzst2:1,2019-01-01T18:36:00Z,26.0670,-97.1550,15.0,4.7,42.0,4.9,'11111222,11111222,11111222' 
NOS,ioos:station:wmo:bzst2:1,2019-01-01T18:42:00Z,26.0670,-97.1550,15.0,4.8,44.0,5.2,'11111222,11111222,11111222' 
NOS,ioos:station:wmo:bzst2:1,2019-01-01T18:48:00Z,26.0670,-97.1550,15.0,4.5,39.0,4.9,'11111222,11111222,11111222' 
NOS,ioos:station:wmo:bzst2:1,2019-01-01T18:54:00Z,26.0670,-97.1550,15.0,4.8,36.0,5.1,'11111222,11111222,11111222' 
NOS,ioos:station:wmo:bzst2:1,2019-01-01T19:00:00Z,26.0670,-97.1550,15.0,4.9,40.0,5.3,'11111222,11111222,11111222' 
NOS,ioos:station:wmo:bzst2:1,2019-01-01T19:06:00Z,26.0670,-97.1550,15.0,5.0,40.0,5.3,'11111222,11111222,11111222' 
NOS,ioos:station:wmo:bzst2:1,2019-01-01T19:12:00Z,26.0670,-97.1550,15.0,5.4,35.0,5.8,'11111222,11111222,11111222' 
NOS,ioos:station:wmo:bzst2:1,2019-01-01T19:18:00Z,26.0670,-97.1550,15.0,5.1,34.0,6.0,'11111222,11111222,11111222' 
NOS,ioos:station:wmo:bzst2:1,2019-01-01T19:24:00Z,26.0670,-97.1550,15.0,6.0,36.0,6.3,'11111222,11111222,11111222' 
NOS,ioos:station:wmo:bzst2:1,2019-01-01T19:30:00Z,26.0670,-97.1550,15.0,6.1,46.0,6.5,'11111222,11111222,11111222' 
NOS,ioos:station:wmo:bzst2:1,2019-01-01T19:36:00Z,26.0670,-97.1550,15.0,6.0,48.0,6.3,'11111222,11111222,11111222' 
NOS,ioos:station:wmo:bzst2:1,2019-01-01T19:42:00Z,26.0670,-97.1550,15.0,5.1,36.0,6.2,'11111222,11111222,11111222' 
NOS,ioos:station:wmo:bzst2:1,2019-01-01T19:48:00Z,26.0670,-97.1550,15.0,4.9,32.0,5.3,'11111222,11111222,11111222' 
NOS,ioos:station:wmo:bzst2:1,2019-01-01T19:54:00Z,26.0670,-97.1550,15.0,6.1,44.0,6.7,'11111222,11111222,11111222' 
NOS,ioos:station:wmo:bzst2:1,2019-01-01T20:00:00Z,26.0670,-97.1550,15.0,7.4,50.0,7.9,'11111222,11111222,11111222' 
NOS,ioos:station:wmo:bzst2:1,2019-01-01T20:06:00Z,26.0670,-97.1550,15.0,7.2,55.0,7.9,'11111222,11111222,11111222' 
NOS,ioos:station:wmo:bzst2:1,2019-01-01T20:12:00Z,26.0670,-97.1550,15.0,7.0,53.0,8.0,'11111222,11111222,11111222' 
NOS,ioos:station:wmo:bzst2:1,2019-01-01T20:18:00Z,26.0670,-97.1550,15.0,6.7,49.0,7.5,'11111222,11111222,11111222' 
NOS,ioos:station:wmo:bzst2:1,2019-01-01T20:24:00Z,26.0670,-97.1550,15.0,6.3,45.0,7.9,'11111222,11111222,11111222' 
NOS,ioos:station:wmo:bzst2:1,2019-01-01T20:30:00Z,26.0670,-97.1550,15.0,6.8,50.0,8.4,'11111222,11111222,11111222' 